| time (UTC) | temp F | wind direction | speed MPH | gust MPH | rain 1hr in | rain 24hr in | rain mn in | humidity % | barometer mb |
| 20260904030107 | 65 | 225 | 0.0 | 0.0 | 0.00 | 0.00 | 0.00 | 44 | 1006.4 |
| 20260904022812 | 69 | 225 | 0.0 | 0.0 | 0.00 | 0.00 | 0.00 | 38 | 1006.1 |
| 20260904021745 | 70 | 225 | 0.0 | 0.0 | 0.00 | 0.00 | 0.00 | 36 | 1006.0 |
| 20260904020722 | 71 | 225 | 0.0 | 0.0 | 0.00 | 0.00 | 0.00 | 35 | 1005.9 |
| 20260904015712 | 73 | 225 | 0.0 | 0.0 | 0.00 | 0.00 | 0.00 | 34 | 1005.9 |
| 20260904014715 | 74 | 225 | 0.0 | 0.0 | 0.00 | 0.00 | 0.00 | 32 | 1005.8 |
| 20260904013739 | 75 | 225 | 0.0 | 0.0 | 0.00 | 0.00 | 0.00 | 32 | 1005.8 |
| 20260904011536 | 76 | 224 | 0.0 | 0.0 | 0.00 | 0.00 | 0.00 | 30 | 1005.7 |
| 20260904010601 | 77 | 225 | 0.0 | 1.0 | 0.00 | 0.00 | 0.00 | 30 | 1005.6 |
| 20260904005542 | 79 | 221 | 0.0 | 4.0 | 0.00 | 0.00 | 0.00 | 28 | 1005.6 |
| 20260904004607 | 80 | 209 | 0.0 | 8.0 | 0.00 | 0.00 | 0.00 | 28 | 1005.6 |
| 20260904003618 | 80 | 261 | 0.0 | 12.0 | 0.00 | 0.00 | 0.00 | 28 | 1005.7 |
| 20260904002607 | 80 | 185 | 1.0 | 10.0 | 0.00 | 0.00 | 0.00 | 27 | 1005.7 |
| 20260904001558 | 80 | 221 | 0.0 | 7.0 | 0.00 | 0.00 | 0.00 | 27 | 1005.8 |
| 20260904000539 | 79 | 217 | 1.0 | 13.0 | 0.00 | 0.00 | 0.00 | 28 | 1005.9 |
| 20260903235558 | 80 | 248 | 0.0 | 13.0 | 0.00 | 0.00 | 0.00 | 28 | 1005.9 |
| 20260903234622 | 79 | 215 | 0.0 | 5.0 | 0.00 | 0.00 | 0.00 | 27 | 1006.0 |
| 20260903233636 | 80 | 238 | 0.0 | 0.0 | 0.00 | 0.00 | 0.00 | 27 | 1006.0 |
| 20260903232639 | 80 | 201 | 1.0 | 4.0 | 0.00 | 0.00 | 0.00 | 28 | 1006.2 |
| 20260903231634 | 78 | 190 | 4.0 | 11.0 | 0.00 | 0.00 | 0.00 | 29 | 1006.2 |
| 20260903230628 | 79 | 211 | 6.0 | 14.0 | 0.00 | 0.00 | 0.00 | 29 | 1006.3 |
| 20260903225652 | 80 | 205 | 3.0 | 10.0 | 0.00 | 0.00 | 0.00 | 28 | 1006.5 |
| 20260903224712 | 81 | 230 | 0.0 | 11.0 | 0.00 | 0.00 | 0.00 | 27 | 1006.5 |
| 20260903223728 | 81 | 207 | 4.0 | 14.0 | 0.00 | 0.00 | 0.00 | 28 | 1006.7 |
| 20260903222726 | 81 | 244 | 1.0 | 14.0 | 0.00 | 0.00 | 0.00 | 27 | 1006.8 |
| 20260903220610 | 79 | 247 | 0.0 | 3.0 | 0.00 | 0.00 | 0.00 | 30 | 1007.0 |
| 20260903215629 | 80 | 253 | 1.0 | 9.0 | 0.00 | 0.00 | 0.00 | 28 | 1007.0 |
| 20260903214651 | 81 | 213 | 1.0 | 9.0 | 0.00 | 0.00 | 0.00 | 28 | 1007.0 |
| 20260903213712 | 80 | 131 | 0.0 | 7.0 | 0.00 | 0.00 | 0.00 | 29 | 1007.1 |
| 20260903211544 | 81 | 197 | 3.0 | 0.0 | 0.00 | 0.00 | 0.00 | 28 | 1007.5 |
| 20260903210533 | 81 | 246 | 1.0 | 10.0 | 0.00 | 0.00 | 0.00 | 29 | 1007.5 |
| 20260903205516 | 80 | 186 | 0.0 | 0.0 | 0.00 | 0.00 | 0.00 | 29 | 1007.6 |
| 20260903203402 | 81 | 242 | 3.0 | 15.0 | 0.00 | 0.00 | 0.00 | 29 | 1008.0 |
| 20260903202423 | 80 | 157 | 4.0 | 12.0 | 0.00 | 0.00 | 0.00 | 29 | 1008.0 |
| 20260903201401 | 80 | 213 | 3.0 | 14.0 | 0.00 | 0.00 | 0.00 | 28 | 1008.1 |
| 20260903200411 | 80 | 202 | 1.0 | 9.0 | 0.00 | 0.00 | 0.00 | 30 | 1008.2 |
| 20260903195423 | 79 | 263 | 4.0 | 0.0 | 0.00 | 0.00 | 0.00 | 30 | 1008.3 |
| 20260903194412 | 79 | 190 | 4.0 | 16.0 | 0.00 | 0.00 | 0.00 | 30 | 1008.4 |
| 20260903192306 | 77 | 215 | 3.0 | 15.0 | 0.00 | 0.00 | 0.00 | 32 | 1008.8 |
| 20260903191228 | 77 | 265 | 4.0 | 12.0 | 0.00 | 0.00 | 0.00 | 33 | 1008.9 |
| 20260903190205 | 77 | 253 | 1.0 | 10.0 | 0.00 | 0.00 | 0.00 | 33 | 1009.1 |
| 20260903185203 | 76 | 246 | 0.0 | 1.0 | 0.00 | 0.00 | 0.00 | 34 | 1009.1 |
| 20260903184202 | 76 | 271 | 0.0 | 0.0 | 0.00 | 0.00 | 0.00 | 34 | 1009.3 |
| 20260903183218 | 76 | 219 | 0.0 | 0.0 | 0.00 | 0.00 | 0.00 | 36 | 1009.4 |
| 20260903182235 | 76 | 211 | 1.0 | 10.0 | 0.00 | 0.00 | 0.00 | 36 | 1009.5 |
| 20260903180115 | 74 | 0 | 1.0 | 1.0 | 0.00 | 0.00 | 0.00 | 39 | 1009.8 |
| 20260903175135 | 74 | 0 | 1.0 | 14.0 | 0.00 | 0.00 | 0.00 | 36 | 1010.1 |
| 20260903174156 | 75 | 229 | 0.0 | 9.0 | 0.00 | 0.00 | 0.00 | 38 | 1010.1 |
| 20260903173221 | 74 | 230 | 3.0 | 11.0 | 0.00 | 0.00 | 0.00 | 37 | 1010.1 |
| 20260903172210 | 73 | 0 | 4.0 | 0.0 | 0.00 | 0.00 | 0.00 | 38 | 1010.0 |
| 20260903171219 | 73 | 251 | 1.0 | 13.0 | 0.00 | 0.00 | 0.00 | 39 | 1010.0 |
| 20260903165127 | 72 | 235 | 8.0 | 16.0 | 0.00 | 0.00 | 0.00 | 40 | 1010.0 |
| 20260903164128 | 72 | 236 | 3.0 | 20.0 | 0.00 | 0.00 | 0.00 | 40 | 1010.1 |
| 20260903163150 | 72 | 219 | 3.0 | 20.0 | 0.00 | 0.00 | 0.00 | 41 | 1010.0 |
| 20260903162149 | 72 | 267 | 6.0 | 15.0 | 0.00 | 0.00 | 0.00 | 42 | 1009.9 |
| 20260903161116 | 71 | 257 | 4.0 | 15.0 | 0.00 | 0.00 | 0.00 | 42 | 1009.9 |
| 20260903160121 | 72 | 186 | 0.0 | 0.0 | 0.00 | 0.00 | 0.00 | 42 | 1009.9 |
| 20260903155048 | 72 | 183 | 0.0 | 2.0 | 0.00 | 0.00 | 0.00 | 44 | 1009.8 |
| 20260903154040 | 72 | 153 | 0.0 | 8.0 | 0.00 | 0.00 | 0.00 | 45 | 1009.9 |
| 20260903153014 | 71 | 124 | 0.0 | 6.0 | 0.00 | 0.00 | 0.00 | 44 | 1010.0 |
| 20260903152009 | 71 | 74 | 0.0 | 0.0 | 0.00 | 0.00 | 0.00 | 45 | 1010.0 |
| 20260903145825 | 70 | 51 | 0.0 | 0.0 | 0.00 | 0.00 | 0.00 | 47 | 1010.2 |
| 20260903144827 | 68 | 51 | 0.0 | 0.0 | 0.00 | 0.00 | 0.00 | 52 | 1010.3 |
| 20260903143753 | 66 | 51 | 0.0 | 0.0 | 0.00 | 0.00 | 0.00 | 54 | 1010.2 |
| 20260903142731 | 64 | 51 | 0.0 | 0.0 | 0.00 | 0.00 | 0.00 | 60 | 1010.2 |
| 20260903141729 | 61 | 52 | 0.0 | 0.0 | 0.00 | 0.00 | 0.00 | 64 | 1010.3 |
| 20260903140728 | 59 | 16 | 0.0 | 0.0 | 0.00 | 0.00 | 0.00 | 68 | 1010.3 |
| 20260903135734 | 57 | 17 | 0.0 | 0.0 | 0.00 | 0.00 | 0.00 | 70 | 1010.3 |
| 20260903134744 | 56 | 16 | 0.0 | 0.0 | 0.00 | 0.00 | 0.00 | 73 | 1010.3 |
| 20260903133714 | 54 | 16 | 0.0 | 0.0 | 0.00 | 0.00 | 0.00 | 76 | 1010.2 |
| 20260903132733 | 53 | 15 | 0.0 | 2.0 | 0.00 | 0.00 | 0.00 | 77 | 1010.2 |
| 20260903131703 | 52 | 15 | 0.0 | 0.0 | 0.00 | 0.00 | 0.00 | 79 | 1010.0 |
| 20260903125504 | 51 | 9 | 0.0 | 0.0 | 0.00 | 0.00 | 0.00 | 79 | 1009.7 |
| 20260903124502 | 51 | 9 | 0.0 | 0.0 | 0.00 | 0.00 | 0.00 | 81 | 1009.7 |
| 20260903123431 | 50 | 9 | 0.0 | 0.0 | 0.00 | 0.00 | 0.00 | 82 | 1009.5 |
| 20260903122447 | 50 | 9 | 0.0 | 0.0 | 0.00 | 0.00 | 0.00 | 82 | 1009.4 |
| 20260903121509 | 50 | 9 | 0.0 | 0.0 | 0.00 | 0.00 | 0.00 | 82 | 1009.3 |
| 20260903120442 | 51 | 9 | 0.0 | 0.0 | 0.00 | 0.00 | 0.00 | 81 | 1009.3 |
| 20260903114326 | 50 | 9 | 0.0 | 0.0 | 0.00 | 0.00 | 0.00 | 83 | 1009.2 |
| 20260903113332 | 51 | 9 | 0.0 | 0.0 | 0.00 | 0.00 | 0.00 | 82 | 1009.2 |
| 20260903111247 | 52 | 9 | 0.0 | 0.0 | 0.00 | 0.00 | 0.00 | 80 | 1009.1 |
| 20260903110312 | 52 | 9 | 0.0 | 0.0 | 0.00 | 0.00 | 0.00 | 80 | 1009.0 |
| 20260903105318 | 52 | 9 | 0.0 | 0.0 | 0.00 | 0.00 | 0.00 | 80 | 1008.9 |
| 20260903103111 | 53 | 9 | 0.0 | 0.0 | 0.00 | 0.00 | 0.00 | 79 | 1009.0 |
| 20260903102037 | 53 | 9 | 0.0 | 0.0 | 0.00 | 0.00 | 0.00 | 79 | 1009.0 |
| 20260903101046 | 53 | 9 | 0.0 | 0.0 | 0.00 | 0.00 | 0.00 | 79 | 1009.1 |
| 20260903100014 | 53 | 9 | 0.0 | 0.0 | 0.00 | 0.00 | 0.00 | 78 | 1009.1 |
| 20260903093901 | 54 | 9 | 0.0 | 0.0 | 0.00 | 0.00 | 0.00 | 77 | 1008.9 |
| 20260903092907 | 54 | 9 | 0.0 | 0.0 | 0.00 | 0.00 | 0.00 | 77 | 1009.0 |
| 20260903091925 | 54 | 9 | 0.0 | 0.0 | 0.00 | 0.00 | 0.00 | 77 | 1008.9 |
| 20260903090937 | 54 | 9 | 0.0 | 0.0 | 0.00 | 0.00 | 0.00 | 77 | 1008.8 |
| 20260903084805 | 55 | 9 | 0.0 | 0.0 | 0.00 | 0.00 | 0.00 | 76 | 1008.6 |
| 20260903083740 | 55 | 9 | 0.0 | 0.0 | 0.00 | 0.00 | 0.00 | 75 | 1008.6 |
| 20260903081612 | 55 | 9 | 0.0 | 0.0 | 0.00 | 0.00 | 0.00 | 76 | 1008.8 |
| 20260903075403 | 55 | 9 | 0.0 | 0.0 | 0.00 | 0.00 | 0.00 | 75 | 1008.8 |
| 20260903074422 | 56 | 9 | 0.0 | 0.0 | 0.00 | 0.00 | 0.00 | 74 | 1008.7 |
| 20260903072244 | 57 | 9 | 0.0 | 0.0 | 0.00 | 0.00 | 0.00 | 72 | 1008.8 |
| 20260903070153 | 57 | 9 | 0.0 | 0.0 | 0.00 | 0.00 | 0.00 | 71 | 1008.6 |
| 20260903065145 | 57 | 9 | 0.0 | 0.0 | 0.00 | 0.00 | 0.00 | 71 | 1008.6 |
| 20260903063054 | 58 | 9 | 0.0 | 0.0 | 0.00 | 0.00 | 0.00 | 70 | 1008.5 |
| 20260903062112 | 58 | 9 | 0.0 | 2.0 | 0.00 | 0.00 | 0.00 | 69 | 1008.4 |
| 20260903061100 | 59 | 9 | 0.0 | 1.0 | 0.00 | 0.00 | 0.00 | 68 | 1008.4 |
| 20260903060057 | 59 | 9 | 0.0 | 0.0 | 0.00 | 0.00 | 0.00 | 69 | 1008.4 |
| 20260903053908 | 59 | 9 | 0.0 | 0.0 | 0.00 | 0.00 | 0.00 | 69 | 1008.3 |
| 20260903052849 | 60 | 9 | 0.0 | 0.0 | 0.00 | 0.00 | 0.00 | 68 | 1008.3 |
| 20260903051905 | 60 | 9 | 0.0 | 0.0 | 0.00 | 0.00 | 0.00 | 67 | 1008.3 |
| 20260903050850 | 61 | 9 | 0.0 | 0.0 | 0.00 | 0.00 | 0.00 | 67 | 1008.3 |
| 20260903045911 | 61 | 9 | 0.0 | 0.0 | 0.00 | 0.00 | 0.00 | 67 | 1008.3 |
| 20260903044844 | 61 | 9 | 0.0 | 0.0 | 0.00 | 0.00 | 0.00 | 68 | 1008.4 |
| 20260903042735 | 60 | 9 | 0.0 | 0.0 | 0.00 | 0.00 | 0.00 | 69 | 1008.3 |
| 20260903041742 | 60 | 9 | 0.0 | 1.0 | 0.00 | 0.00 | 0.00 | 69 | 1008.4 |
| 20260903040723 | 60 | 9 | 0.0 | 0.0 | 0.00 | 0.00 | 0.00 | 69 | 1008.2 |
| 20260903035659 | 60 | 9 | 4.0 | 8.0 | 0.00 | 0.00 | 0.00 | 69 | 1008.1 |
| 20260903034628 | 61 | 9 | 0.0 | 0.0 | 0.00 | 0.00 | 0.00 | 69 | 1008.1 |